• In Deutschland
  • Länderverzeichnis
  • Für 7 Tage
  • Wassertemperatur
  • Satellitenkarten
  • Wetterkarte
  • Widgets
  • user-avatar
    Anmelden

    Stündliche Wetter Eydelstedt

    Heute, 17 Oktober, Dienstag

    Zeit Temperatur Niederschläge Wind Luftdruck Luftfeuchtigkeit
    00:00 +17°C° 0 mm 4 m/S 761 mmHg 77%
    01:00 +17°C° 0 mm 3 m/S 761 mmHg 76%
    02:00 +16°C° 0 mm 3 m/S 761 mmHg 79%
    03:00 +16°C° 0 mm 3 m/S 761 mmHg 81%
    04:00 +14°C° 0 mm 3 m/S 761 mmHg 84%
    05:00 +14°C° 0 mm 3 m/S 762 mmHg 87%
    06:00 +14°C° 0 mm 3 m/S 762 mmHg 89%
    07:00 +13°C° 0 mm 3 m/S 762 mmHg 92%
    08:00 +14°C° 0 mm 4 m/S 762 mmHg 85%
    09:00 +17°C° 0 mm 4 m/S 762 mmHg 78%
    10:00 +17°C° 0 mm 5 m/S 762 mmHg 71%
    11:00 +17°C° 0 mm 5 m/S 762 mmHg 68%
    12:00 +19°C° 0 mm 5 m/S 762 mmHg 66%
    13:00 +19°C° 0 mm 5 m/S 762 mmHg 63%
    14:00 +19°C° 0 mm 4 m/S 761 mmHg 65%
    15:00 +19°C° 0 mm 4 m/S 761 mmHg 68%
    16:00 +19°C° 0 mm 3 m/S 761 mmHg 70%
    17:00 +17°C° 0 mm 3 m/S 761 mmHg 74%
    18:00 +16°C° 0 mm 2 m/S 761 mmHg 78%
    19:00 +14°C° 0 mm 2 m/S 760 mmHg 82%
    20:00 +14°C° 0 mm 2 m/S 760 mmHg 84%
    21:00 +13°C° 0 mm 2 m/S 760 mmHg 85%
    22:00 +13°C° 0 mm 2 m/S 760 mmHg 86%
    23:00 +13°C° 0 mm 1 m/S 760 mmHg 87%

    Morgen, 18 Oktober, Mittwoch

    Zeit Temperatur Niederschläge Wind Luftdruck Luftfeuchtigkeit
    00:00 +12°C° 0 mm 1 m/S 760 mmHg 88%
    01:00 +12°C° 0 mm 1 m/S 760 mmHg 89%
    02:00 +12°C° 0 mm 1 m/S 759 mmHg 89%
    03:00 +12°C° 0 mm 1 m/S 759 mmHg 88%
    04:00 +12°C° 0 mm 1 m/S 759 mmHg 88%
    05:00 +12°C° 0 mm 1 m/S 758 mmHg 88%
    06:00 +12°C° 0 mm 1 m/S 758 mmHg 87%
    07:00 +12°C° 0 mm 1 m/S 758 mmHg 87%
    08:00 +13°C° 0 mm 1 m/S 758 mmHg 83%
    09:00 +14°C° 0 mm 1 m/S 758 mmHg 80%
    10:00 +16°C° 0 mm 2 m/S 758 mmHg 76%
    11:00 +17°C° 0 mm 2 m/S 757 mmHg 75%
    12:00 +18°C° 0 mm 2 m/S 757 mmHg 73%
    13:00 +19°C° 0 mm 2 m/S 757 mmHg 71%
    14:00 +20°C° 0 mm 1 m/S 757 mmHg 73%
    15:00 +20°C° 0 mm 1 m/S 757 mmHg 74%
    16:00 +20°C° 0 mm 1 m/S 756 mmHg 75%
    17:00 +19°C° 0 mm 1 m/S 756 mmHg 79%
    18:00 +16°C° 0 mm 1 m/S 756 mmHg 83%
    19:00 +15°C° 0 mm 1 m/S 756 mmHg 87%
    20:00 +14°C° 0 mm 1 m/S 756 mmHg 87%
    21:00 +14°C° 0 mm 1 m/S 756 mmHg 88%
    22:00 +14°C° 0 mm 2 m/S 756 mmHg 88%
    23:00 +14°C° 0 mm 2 m/S 756 mmHg 88%

    übermorgen, 19 Oktober, Donnerstag

    Zeit Temperatur Niederschläge Wind Luftdruck Luftfeuchtigkeit
    00:00 +14°C° 0 mm 2 m/S 756 mmHg 87%
    01:00 +13°C° 0 mm 2 m/S 756 mmHg 87%
    02:00 +13°C° 0 mm 2 m/S 756 mmHg 87%
    03:00 +13°C° 0 mm 2 m/S 756 mmHg 88%
    04:00 +13°C° 0 mm 2 m/S 756 mmHg 89%
    05:00 +13°C° 0 mm 2 m/S 755 mmHg 90%
    06:00 +13°C° 0 mm 2 m/S 755 mmHg 91%
    07:00 +12°C° 0 mm 2 m/S 755 mmHg 92%
    08:00 +14°C° 0 mm 2 m/S 755 mmHg 88%
    09:00 +15°C° 0 mm 2 m/S 755 mmHg 83%
    10:00 +16°C° 0 mm 2 m/S 755 mmHg 79%
    11:00 +18°C° 0 mm 3 m/S 755 mmHg 75%
    12:00 +19°C° 0 mm 3 m/S 755 mmHg 70%
    13:00 +20°C° 0 mm 3 m/S 755 mmHg 66%
    14:00 +20°C° 0 mm 3 m/S 755 mmHg 68%
    15:00 +20°C° 0 mm 2 m/S 754 mmHg 71%
    16:00 +19°C° 0 mm 2 m/S 754 mmHg 73%
    17:00 +18°C° 0 mm 2 m/S 754 mmHg 74%
    18:00 +17°C° 0 mm 3 m/S 754 mmHg 76%
    19:00 +17°C° 0 mm 3 m/S 754 mmHg 78%
    20:00 +16°C° 0,1 mm 3 m/S 754 mmHg 78%
    21:00 +16°C° 0,1 mm 3 m/S 754 mmHg 78%
    22:00 +15°C° 0,1 mm 4 m/S 754 mmHg 78%
    23:00 +14°C° 0 mm 4 m/S 754 mmHg 78%

    20 Oktober, Freitag

    Zeit Temperatur Niederschläge Wind Luftdruck Luftfeuchtigkeit
    00:00 +14°C° 0 mm 4 m/S 754 mmHg 79%
    01:00 +14°C° 0 mm 4 m/S 754 mmHg 79%
    02:00 +14°C° 0 mm 4 m/S 753 mmHg 81%
    03:00 +14°C° 0 mm 4 m/S 753 mmHg 83%
    04:00 +14°C° 0 mm 4 m/S 753 mmHg 84%
    05:00 +13°C° 0 mm 4 m/S 753 mmHg 84%
    06:00 +13°C° 0 mm 4 m/S 753 mmHg 84%
    07:00 +13°C° 0 mm 5 m/S 753 mmHg 84%
    08:00 +14°C° 0,1 mm 5 m/S 753 mmHg 82%
    09:00 +15°C° 0,1 mm 6 m/S 753 mmHg 80%
    10:00 +16°C° 0,1 mm 7 m/S 753 mmHg 77%
    11:00 +16°C° 0,4 mm 8 m/S 753 mmHg 77%
    12:00 +16°C° 0,4 mm 8 m/S 752 mmHg 77%
    13:00 +16°C° 0,4 mm 9 m/S 752 mmHg 76%
    14:00 +16°C° 0,3 mm 8 m/S 752 mmHg 77%
    15:00 +16°C° 0,3 mm 7 m/S 753 mmHg 77%
    16:00 +15°C° 0,3 mm 7 m/S 753 mmHg 77%
    17:00 +14°C° 0 mm 6 m/S 754 mmHg 81%
    18:00 +13°C° 0 mm 4 m/S 754 mmHg 85%
    19:00 +11°C° 0 mm 3 m/S 755 mmHg 88%
    20:00 +11°C° 0 mm 3 m/S 755 mmHg 90%
    21:00 +11°C° 0 mm 3 m/S 755 mmHg 91%
    22:00 +10°C° 0 mm 2 m/S 756 mmHg 93%
    23:00 +10°C° 0 mm 2 m/S 756 mmHg 93%

    21 Oktober, Samstag

    Zeit Temperatur Niederschläge Wind Luftdruck Luftfeuchtigkeit
    00:00 +10°C° 0 mm 2 m/S 756 mmHg 93%
    01:00 +10°C° 0 mm 2 m/S 755 mmHg 93%
    02:00 +11°C° 0 mm 3 m/S 755 mmHg 92%
    03:00 +11°C° 0 mm 3 m/S 755 mmHg 92%
    04:00 +12°C° 0 mm 3 m/S 754 mmHg 91%
    05:00 +12°C° 0,3 mm 3 m/S 754 mmHg 91%
    06:00 +13°C° 0,3 mm 4 m/S 754 mmHg 91%
    07:00 +14°C° 0,3 mm 4 m/S 754 mmHg 91%
    08:00 +14°C° 0,2 mm 4 m/S 754 mmHg 90%
    09:00 +15°C° 0,2 mm 5 m/S 754 mmHg 89%
    10:00 +16°C° 0,2 mm 5 m/S 754 mmHg 88%
    11:00 +16°C° 0,5 mm 5 m/S 754 mmHg 89%
    12:00 +17°C° 0,5 mm 4 m/S 754 mmHg 90%
    13:00 +17°C° 0,5 mm 4 m/S 754 mmHg 91%
    14:00 +17°C° 0,9 mm 4 m/S 754 mmHg 90%
    15:00 +15°C° 0,9 mm 4 m/S 754 mmHg 90%
    16:00 +15°C° 0,9 mm 4 m/S 754 mmHg 89%
    17:00 +14°C° 0,1 mm 4 m/S 754 mmHg 88%
    18:00 +14°C° 0,1 mm 4 m/S 754 mmHg 88%
    19:00 +13°C° 0,1 mm 4 m/S 754 mmHg 87%
    20:00 +12°C° 0 mm 4 m/S 754 mmHg 87%
    21:00 +12°C° 0 mm 4 m/S 754 mmHg 86%
    22:00 +10°C° 0 mm 5 m/S 754 mmHg 86%
    23:00 +10°C° 0 mm 5 m/S 754 mmHg 85%

    22 Oktober, Sonntag

    Zeit Temperatur Niederschläge Wind Luftdruck Luftfeuchtigkeit
    00:00 +10°C° 0 mm 5 m/S 753 mmHg 85%
    01:00 +10°C° 0 mm 5 m/S 753 mmHg 84%
    02:00 +9°C° 0 mm 6 m/S 753 mmHg 83%
    03:00 +9°C° 0 mm 6 m/S 753 mmHg 83%
    04:00 +9°C° 0 mm 6 m/S 752 mmHg 82%
    05:00 +9°C° 0 mm 6 m/S 752 mmHg 81%
    06:00 +9°C° 0 mm 7 m/S 752 mmHg 80%
    07:00 +9°C° 0 mm 7 m/S 752 mmHg 78%
    08:00 +9°C° 0 mm 8 m/S 752 mmHg 76%
    09:00 +10°C° 0 mm 8 m/S 753 mmHg 73%
    10:00 +10°C° 0 mm 9 m/S 753 mmHg 71%
    11:00 +11°C° 0 mm 9 m/S 753 mmHg 69%
    12:00 +11°C° 0 mm 9 m/S 753 mmHg 67%
    13:00 +11°C° 0 mm 9 m/S 753 mmHg 65%
    14:00 +11°C° 0,2 mm 8 m/S 753 mmHg 69%
    15:00 +10°C° 0,2 mm 8 m/S 753 mmHg 73%
    16:00 +10°C° 0,2 mm 7 m/S 753 mmHg 77%
    17:00 +9°C° 0,4 mm 7 m/S 753 mmHg 80%
    18:00 +9°C° 0,4 mm 6 m/S 754 mmHg 83%
    19:00 +9°C° 0,4 mm 6 m/S 754 mmHg 87%
    20:00 +8°C° 0 mm 6 m/S 754 mmHg 87%
    21:00 +8°C° 0 mm 6 m/S 755 mmHg 87%
    22:00 +7°C° 0 mm 6 m/S 755 mmHg 87%
    23:00 +7°C° 0 mm 6 m/S 755 mmHg 87%
    Mehr zeigen